Weather History for Cut Bank, MT

Change the Weather History Date:

Wednesday, December 26, 2012

  Actual Average Record
Temperature  
Mean Temperature -5 °F 21 °F  
Max Temperature 2 °F 32 °F 58 °F (1980)
Min Temperature -12 °F 11 °F -27 °F (1934)
Degree Days  
Heating Degree Days 70 44  
Month to date heating degree days 1146 1110  
Since 1 July heating degree days 3286 3373  
Cooling Degree Days 0 0  
Month to date cooling degree days 0 0  
Year to date cooling degree days 210 162  
Moisture  
Dew Point -9 °F    
Average Humidity 84    
Maximum Humidity 92    
Minimum Humidity 75    
Precipitation  
Precipitation 0.00 in 0.01 in 0.16 in (1925)
Month to date precipitation 0.18 0.18  
Year to date precipitation 9.03 10.86  
Snow  
Snow 0.00 in - - ()
Snow Depth -    
Sea Level Pressure  
Sea Level Pressure 29.99 in    
Wind  
Wind Speed 1 mph (SE)    
Max Wind Speed 7 mph    
Max Gust Speed 7 mph    
Visibility 8 miles    
Events      
T = Trace of Precipitation, MM = Missing Value Source: NWS Daily Summary

Daily Weather History Graph

Daily Weather History Graph

Search for Another Location

Airport:

Trip Planner

Search our weather history database for the weather conditions in past years. The results will help you decide how hot, cold, wet, or windy it might be!

Date:

Astronomy

Dec. 26, 2012 Rise Set
Actual Time 8:21 AM MST 4:39 PM MST
Civil Twilight 7:44 AM MST 5:16 PM MST
Nautical Twilight 7:04 AM MST 5:56 PM MST
Astronomical Twilight 6:25 AM MST 6:35 PM MST
Moon 3:38 PM MST (12/26) 6:45 AM MST (12/26)
Length of Visible Light 9h 32m
Length of Day
8h 18m
Waxing Gibbous, 98% of the Moon is Illuminated
Dec 26
Waxing Gibbous
Dec 28
Full
Jan 4
Last Quarter
Jan 11
New
Jan 18
First Quarter

Hourly Weather History & Observations

Time (MST) Temp. Windchill Dew Point Humidity Pressure Visibility Wind Dir Wind Speed Gust Speed Precip Events Conditions
12:56 AM -5.1 °F - -9.0 °F 83% 30.14 in 10.0 mi Calm Calm - N/A   Overcast
2:56 AM -5.1 °F - -8.0 °F 87% 30.11 in 10.0 mi Calm Calm - N/A   Overcast
3:26 AM -5.8 °F -14.5 °F -9.4 °F 84% 29.82 in 10.0 mi SSE 3.5 mph - N/A   Overcast
3:56 AM -5.1 °F - -9.0 °F 83% 30.10 in 10.0 mi Calm Calm - N/A   Overcast
4:52 AM -5.8 °F - -7.6 °F 92% 29.81 in 10.0 mi Calm Calm - N/A   Overcast
5:56 AM -6.0 °F - -9.0 °F 87% 30.08 in 10.0 mi Calm Calm - N/A   Overcast
6:56 AM -7.1 °F -15.9 °F -11.0 °F 83% 30.07 in 10.0 mi SSE 3.5 mph - N/A   Overcast
7:56 AM -8.0 °F -19.2 °F -11.0 °F 86% 30.06 in 10.0 mi South 4.6 mph - N/A   Clear
8:56 AM -9.0 °F -20.4 °F -11.9 °F 87% 30.07 in 10.0 mi SSE 4.6 mph - N/A   Clear
9:35 AM -7.6 °F -18.8 °F -9.4 °F 92% 29.77 in 1.8 mi ESE 4.6 mph - N/A   Clear
9:44 AM -5.8 °F -14.5 °F -9.4 °F 84% 29.77 in 3.0 mi East 3.5 mph - N/A   Clear
9:52 AM -5.8 °F - -9.4 °F 84% 29.78 in 2.5 mi Calm Calm - N/A   Partly Cloudy
9:53 AM -5.8 °F - -9.4 °F 84% 29.78 in 1.8 mi Calm Calm - N/A   Partly Cloudy
9:56 AM -6.0 °F -14.7 °F -11.0 °F 79% 30.07 in 1.0 mi East 3.5 mph - N/A   Haze
10:03 AM -5.8 °F - -9.4 °F 84% 29.78 in 2.0 mi Calm Calm - N/A   Partly Cloudy
10:10 AM -5.8 °F - -9.4 °F 84% 29.78 in 10.0 mi Calm Calm - N/A   Partly Cloudy
10:56 AM -4.0 °F -12.4 °F -8.0 °F 83% 30.06 in 10.0 mi SSE 3.5 mph - N/A   Clear
11:56 AM -2.0 °F -10.1 °F -6.0 °F 83% 30.04 in 10.0 mi South 3.5 mph - N/A   Clear
12:56 PM -0.9 °F - -5.1 °F 83% 30.01 in 10.0 mi Calm Calm - N/A   Clear
1:56 PM -0.0 °F - -5.1 °F 79% 30.00 in 10.0 mi Calm Calm - N/A   Clear
2:56 PM -0.0 °F - -5.1 °F 79% 30.01 in 10.0 mi Calm Calm - N/A   Clear
3:56 PM -0.0 °F - -6.0 °F 76% 30.02 in 10.0 mi Calm Calm - N/A   Clear
4:56 PM -2.0 °F - -6.0 °F 83% 30.04 in 10.0 mi Calm Calm - N/A   Clear
5:56 PM -2.0 °F - -6.0 °F 83% 30.04 in 10.0 mi Calm Calm - N/A   Clear
6:56 PM -7.1 °F - -9.0 °F 91% 30.07 in 10.0 mi Calm Calm - N/A   Clear
7:56 PM -5.1 °F - -9.0 °F 83% 30.07 in 10.0 mi Calm Calm - N/A   Clear
8:56 PM -9.0 °F - -11.9 °F 87% 30.09 in 10.0 mi Calm Calm - N/A   Clear
9:56 PM -9.9 °F - -14.1 °F 82% 30.09 in 10.0 mi Calm Calm - N/A   Clear
10:56 PM -11.0 °F - -14.1 °F 86% 30.10 in 10.0 mi Calm Calm - N/A   Clear
11:56 PM -9.9 °F - -14.1 °F 82% 30.09 in 10.0 mi Calm Calm - N/A   Clear